Sparrow
1 43881U 18111F 24130.49527982 .00014540 00000-0 90156-3 0 9990
2 43881 97.6312 38.2356 0010872 161.8045 198.3575 15.09795557293649
AISat 1
1 44104U 19018AC 24130.81580065 .00183499 00000-0 82172-3 0 9992
2 44104 97.3619 239.1599 0015578 129.8952 230.3690 15.83516999286779
Prox-1
1 44339U 19036A 24130.32108049 .00013237 00000-0 23319-2 0 9995
2 44339 23.9991 115.2955 0008552 284.9173 75.0374 14.65821747259535
SONATE
1 44400U 19038Q 24130.50423227 .00022165 00000-0 71085-3 0 9998
2 44400 97.7121 122.9253 0014443 237.3731 122.6117 15.32254839268151
BeeSat 9
1 44412U 19038AC 24130.73943375 .00336211 00000-0 18279-2 0 9992
2 44412 97.6763 135.2562 0010720 167.7976 192.3552 15.79002024268735
JAISAT-1
1 44419U 19038F 24130.72545503 .00287685 00000-0 17614-2 0 9991
2 44419 97.6750 136.1841 0010118 165.9026 194.2523 15.76452181269106
Taurus 1
1 44530U 19059C 24130.86674433 .00010581 00000-0 24839-2 0 9994
2 44530 98.5721 250.0463 0013016 168.6018 191.5475 14.54588596246190
Duchifat 3
1 44854U 19089C 24130.78794454 .00022080 00000-0 11611-2 0 9994
2 44854 36.9580 281.9329 0006534 126.8425 233.2922 15.14911788242374
OPS-SAT
1 44878U 19092F 24130.53858633 .00482939 00000-0 18413-2 0 9997
2 44878 97.4350 335.2864 0002381 268.9354 91.1644 15.86348728244460
TO-108
1 44881U 19093C 24130.80200754 .00001787 00000-0 22279-3 0 9991
2 44881 97.8287 208.3263 0015849 89.0722 271.2308 14.83591547237357
FloripaSat 1
1 44885U 19093G 24130.80362048 .00007016 00000-0 73821-3 0 9990
2 44885 97.8406 213.6844 0013936 84.8762 275.4045 14.89638794237659
RS-44
1 44909U 19096E 24130.80340932 .00000042 00000-0 11576-3 0 9999
2 44909 82.5176 130.2817 0218230 140.7076 221.0093 12.79729522204111
BY70-2
1 45857U 20042B 24130.85054391 .00116706 00000-0 52690-2 0 9997
2 45857 97.9078 222.1603 0005312 298.9499 61.1202 15.20453202208701
UPMSat 2
1 46276U 20061E 24130.72507417 .00019682 00000-0 63080-3 0 9993
2 46276 97.2994 197.4537 0000798 157.6699 202.4578 15.32394467204288
AmicalSat
1 46287U 20061R 24130.67461733 .00035588 00000-0 10691-2 0 9991
2 46287 97.3516 197.9893 0001379 63.5803 296.5581 15.34335428203651
SALSAT
1 46495U 20068K 24130.44871217 .00008667 00000-0 50123-3 0 9999
2 46495 97.8144 88.7931 0016114 86.9313 273.3761 15.12414803198457
UVSQ-SAT
1 47438U 21006AB 24130.13646230 .00047535 00000-0 10618-2 0 9992
2 47438 97.3310 190.2060 0005021 2.2539 357.8730 15.43368626182703
YUSAT 1
1 47439U 21006AC 24130.82295086 .00132697 00000-0 17350-2 0 9992
2 47439 97.3256 194.6521 0003185 312.2542 47.8444 15.58179529183055
SOMP 2b
1 47445U 21006AJ 24130.13259965 .00042510 00000-0 10287-2 0 9995
2 47445 97.3265 188.6810 0005484 15.7631 344.3785 15.40984408182631
IDEASSat
1 47458U 21006AX 24130.43455815 .00037178 00000-0 96865-3 0 9995
2 47458 97.3370 189.6058 0005635 17.7455 342.3986 15.38757293182628
CubeSX-Sirius-HSE
1 47951U 21022V 24130.85120168 .00026106 00000-0 10828-2 0 9990
2 47951 97.4646 29.3520 0012299 273.1214 86.8615 15.23781116172737
CubeSX-HSE
1 47952U 21022W 24130.80737930 .00026519 00000-0 10964-2 0 9996
2 47952 97.4644 29.3930 0012301 272.4315 87.5514 15.23885667172731
KSU-Cubesat
1 47954U 21022Y 24130.66835317 .00029570 00000-0 11335-2 0 9993
2 47954 97.4657 30.4066 0011091 267.1198 92.8771 15.26409482172504
GRBAlpha
1 47959U 21022AD 24130.83982750 .00025746 00000-0 10615-2 0 9992
2 47959 97.4647 29.5684 0012046 272.2720 87.7138 15.23988344171563
Orbicraft-Zorkiy
1 47960U 21022AE 24130.88027270 .00028000 00000-0 10941-2 0 9994
2 47960 97.4687 30.7574 0011329 268.0645 91.9296 15.25778837172315
STECCO
1 47962U 21022AG 24130.81029301 .00108183 00000-0 19425-2 0 9993
2 47962 97.4655 38.7635 0005827 187.8936 172.2224 15.49482669172163
MO-110
1 47964U 21022AJ 24130.69583985 .00129365 00000-0 19910-2 0 9998
2 47964 97.4679 40.1648 0007144 185.6517 174.4657 15.53730647172236
TUBIN
1 48900U 21059X 24130.85075760 .00021053 00000-0 75692-3 0 9999
2 48900 97.6415 274.4197 0007100 212.4546 147.6257 15.28633583159068
LEDSAT
1 49069U 21073D 24130.71388297 .00019432 00000-0 81802-3 0 9997
2 49069 97.4393 202.1382 0020627 63.0309 297.3031 15.23212416150593
CUTE
1 49263U 21088D 24130.72540066 .00021167 00000-0 10426-2 0 9995
2 49263 97.4997 197.0098 0014684 207.4416 152.6043 15.17892388143801
TeikyoSat 4
1 49396U 21102B 24130.59706219 .00003503 00000-0 25665-3 0 9994
2 49396 97.4640 176.9078 0014697 53.1229 307.1342 15.04088591136955
Z-Sat
1 49399U 21102E 24130.85914233 .00007234 00000-0 47227-3 0 9996
2 49399 97.4345 178.6236 0021335 34.3689 325.8914 15.07951876137213
KOSEN 1
1 49402U 21102H 24130.64437819 .00007699 00000-0 46500-3 0 9996
2 49402 97.4264 179.7207 0019250 19.9669 340.2311 15.10810788137322
HO-113
1 50466U 21131B 24130.82978087 .00001332 00000-0 44075-3 0 9990
2 50466 98.5273 216.0811 0003329 228.4041 131.6862 14.39557609124489
Tevel-3
1 50988U 22002E 24130.82530529 .00127489 00000-0 18099-2 0 9990
2 50988 97.3808 205.0642 0004780 167.9545 192.1824 15.55969592129063
Tevel-8
1 50989U 22002F 24130.79882615 .00128669 00000-0 18370-2 0 9996
2 50989 97.3832 205.1271 0004900 168.9045 191.2319 15.55811053129056
Tevel-5
1 50998U 22002Q 24130.81909554 .00156434 00000-0 19034-2 0 9990
2 50998 97.3798 206.2170 0004640 166.9741 193.1636 15.60004142129141
Tevel-6
1 50999U 22002R 24130.82407105 .00154000 00000-0 18858-2 0 9997
2 50999 97.3792 206.1921 0004527 167.3055 192.8317 15.59843973129149
Tevel-1
1 51013U 22002AF 24130.78767339 .00125145 00000-0 17895-2 0 9996
2 51013 97.3797 204.8926 0004702 163.7555 196.3851 15.55781641129053
IRIS-A
1 51044U 22002BN 24130.42115303 .00021816 00000-0 75967-3 0 9994
2 51044 97.3869 197.1087 0007473 160.7617 199.3907 15.29666002128499
Tevel-7
1 51062U 22002CG 24130.78862570 .00124413 00000-0 17685-2 0 9997
2 51062 97.3815 205.0913 0004677 163.8442 196.2963 15.55946153129058
Tevel-4
1 51063U 22002CH 24130.82315622 .00126446 00000-0 18215-2 0 9992
2 51063 97.3820 205.0366 0004694 163.1628 196.9783 15.55575579129052
Tevel-2
1 51069U 22002CP 24130.82348816 .00128085 00000-0 18156-2 0 9994
2 51069 97.3804 205.0301 0004702 166.6187 193.5193 15.56009215129066
SO-115
1 51080U 22002DA 24130.46382933 .00418738 00000-0 19913-2 0 9994
2 51080 97.4057 213.6659 0007640 220.0084 140.0622 15.81782032129399
SO-114
1 51081U 22002DB 24130.48677574 .00538649 00000-0 20317-2 0 9999
2 51081 97.4058 214.0182 0007745 228.8858 131.1745 15.86418533129426
OreSat0
1 52017U 22026K 24130.55865256 .00068667 00000-0 13224-2 0 9996
2 52017 97.4974 143.2452 0011603 12.7762 347.3780 15.47572546119722
Planetum 1
1 52738U 22057G 24130.59765635 .00042682 00000-0 11520-2 0 9990
2 52738 97.5627 255.4626 0005245 273.6253 86.4392 15.37640058108636
Foresail-1
1 52766U 22057AL 24130.82955507 .00024452 00000-0 83958-3 0 9996
2 52766 97.5784 255.4962 0009181 262.2250 97.7948 15.30090013108587
SNUGLITE 2
1 52899U 22065F 24130.35351367 .00002039 00000-0 42842-3 0 9998
2 52899 98.1142 272.2669 0006494 273.9578 86.0880 14.60631128 98591
